Find Starlink 38164

NORAD ID: 100224 Int'l Des: 2026-177 Owner: SPXS Country: US Constellation: starlink operational

Current View

Loading 3D Globe...

About Starlink 38164

Starlink 38164 (NORAD 100224) is a starlink constellation satellite launched Aug 4, 2026 by SPXS of US. with a mass of 575.00 kg.

Upcoming Passes

Passes for default location (London). Set your location on the main map for personalized predictions.

Altitude History

Loading altitude history...

Two-Line Element Set

1 A0224U 26177M 26235.61662203 .00080630 00000-0 53607-3 0 9996
2 A0224 97.2845 285.5385 0001104 91.1183 269.0209 15.75202534 3926
Epoch: Aug 23, 2026 • Age: 12 hours

Current Status

Altitude 372.5 km
Apogee / Perigee N/A
Velocity 7.68 km/s
Sub-Earth Point -78.95°S, 45.47°W
Launch Date Aug 4, 2026
Age 19 days
Type internet

Technical Details

Classification Payload
Mass 575.00 kg
Dry Mass 530.00 kg
Total Mass 575.00 kg
Length 0.30 m
Diameter 4.10 m
Span 29.00 m
Shape Box + pan
Manufacturer SPXS
Bus Type Starlink V2MO
Phase Status In Orbit
Owner/State SPXS/US

Most Searched